Welcome to the New NWS' Forecast!
Most changes are behind the scenes, but click here for differences you might notice.

Regional Weather Roundup (RWR)

Issued by National Weather Service (NWS)

                            
000
ASUS46 KSEW 160510
RWRWA 

WASHINGTON REGIONAL WEATHER ROUNDUP
NATIONAL WEATHER SERVICE SEATTLE WA
900 PM PST THU NOV 15 2018

NOTE:"FAIR" INDICATES FEW OR NO CLOUDS BELOW 12,000 FEET WITH NO 
SIGNIFICANT WEATHER AND/OR OBSTRUCTIONS TO VISIBILITY.

WAZ507-509-555>559-160600-
SEATTLE, TACOMA, EVERETT, AND VICINITY
  
CITY           SKY/WX    TMP DP  RH WIND       PRES   REMARKS
EVERETT        CLOUDY    51  46  83 SE12      30.19S                  
BOEING FIELD   CLOUDY    54  45  71 S10       30.21S                  
RENTON         CLOUDY    56  44  64 SE9       30.20F                  
SEATAC AIRPORT CLOUDY    54  45  71 S14G22    30.20F                  
JBLM-MCCHORD   MOCLDY    50  50 100 S9        30.22S                  
PUYALLUP       CLOUDY    50  46  87 CALM      30.22S                  
BREMERTON      CLOUDY    50  47  89 S9        30.18F                  
JBLM-FT LEWIS  PTCLDY    49  48  99 SE10      30.21F                  
TACOMA NARROWS CLOUDY    51  46  83 S10       30.21S                  
$$
 
WAZ001-503-506-510-514-515-160600-
NORTH INTERIOR
  
CITY           SKY/WX    TMP DP  RH WIND       PRES   REMARKS
BELLINGHAM     CLOUDY    54  46  74 SE13      30.15R                  
FRIDAY HARBOR  CLOUDY    52  47  83 S8        30.16F                  
EASTSOUND      MOCLDY    52  48  87 S12G17    30.13S                  
PORT ANGELES   CLOUDY    49  47  93 SE7       30.17R                  
EDIZ HOOK      CLOUDY    49  48  97 S6        30.17R                  
PORT TOWNSEND  CLOUDY    52  48  87 SE5       30.17R                  
NAS WHIDBEY    CLOUDY    55  48  77 SE15      30.21R                  
ARLINGTON      LGT RAIN  51  48  89 SE8       30.20R                  
BURLINGTON     CLOUDY    52  50  93 SE6       30.19R FOG              
$$
 
WAZ020-022-039-040-504-511-512-160600-
SOUTHWEST INTERIOR
  
CITY           SKY/WX    TMP DP  RH WIND       PRES   REMARKS
SHELTON        CLOUDY    50  48  93 W15G22    30.18F FOG              
OLYMPIA        MOCLDY    49  46  90 S9        30.22F                  
CHEHALIS       CLOUDY    48  48 100 SW5       30.24F                  
KELSO          CLEAR     47  46  97 CALM      30.27F                  
VANCOUVER      MOCLDY    46  44  93 CALM      30.26F                  
SCAPPOOSE, OR  FOG       44  42  93 CALM      30.26S VSB 3/4          
PORTLAND, OR   MOCLDY    46  44  93 E6        30.27S                  
$$
 
WAZ021-516-517-160600-
WASHINGTON COAST
  
CITY           SKY/WX    TMP DP  RH WIND       PRES   REMARKS
FORKS          LGT RAIN  51  50  96 S3        30.21S FOG              
HOQUIAM        CLOUDY    53  52  96 S9        30.23S FOG              
ASTORIA, OR    MOCLDY    46  46 100 SE3       30.26S                  
$$
 
WAZ019-023-024-040-567>569-160600-
CASCADE MOUNTAINS AND COLUMBIA GORGE
  
CITY           SKY/WX    TMP DP  RH WIND       PRES   REMARKS
STAMPEDE PASS  NOT AVBL                                               
TROUTDALE, OR  CLEAR     42  40  92 CALM      30.27S FOG              
HOOD RIVER, OR CLEAR     41  37  87 CALM      30.20S                  
THE DALLES, OR PTCLDY    42  38  85 CALM      30.19S                  
$$

WAZ026-027-041>044-520-521-160600-
EAST SLOPES
  
CITY           SKY/WX    TMP DP  RH WIND       PRES   REMARKS
OMAK           MOCLDY    33  32  96 N6        30.13S                  
WENATCHEE      CLOUDY    35  33  92 E5        30.11F FOG              
ELLENSBURG     MOCLDY    49  37  63 NW14      30.12F                  
YAKIMA         MOCLDY    33  29  85 CALM      30.18S FOG              
SUNNYSIDE ARPT MOCLDY    32  31  98 CALM      30.18  FOG              
YAKIMA TC      FAIR      36  32  87 SW3       30.14F                  
$$

WAZ028-034-035-160600-
COLUMBIA BASIN
  
CITY           SKY/WX    TMP DP  RH WIND       PRES   REMARKS
EPHRATA        CLOUDY    37  33  85 N3        30.11F                  
MOSES LAKE     CLOUDY    37  34  89 S6        30.12F FOG              
PASCO          PTCLDY    32  30  92 N3        30.19F HAZE             
RICHLAND ARPT  PTCLDY    36  35  96 CALM      30.18F FOG              
HERMISTON, OR  CLEAR     35  33  92 S6        30.17F                  
$$

WAZ036>038-160600-
NORTHEAST WASHINGTON
  
CITY           SKY/WX    TMP DP  RH WIND       PRES   REMARKS
SPOKANE GEIGER LGT RAIN  41  37  86 S7        30.11S                  
SPOKANE FELTS  CLOUDY    40  37  89 CALM      30.12F FOG              
FAIRCHILD AFB  LGT RAIN  40  40 100 S7        30.10S                  
COEURDALENE,ID LGT RAIN  42  38  85 SW5       30.11F                  
DEER PARK      CLOUDY    35  34  96 CALM      30.11F FOG              
$$

WAZ029>033-160600-
SOUTHEAST WASHINGTON
  
CITY           SKY/WX    TMP DP  RH WIND       PRES   REMARKS
PULLMAN        CLOUDY    40  37  89 SW3       30.14F                  
LEWISTON, ID   MOCLDY    43  35  73 NW3       30.16F                  
WALLA WALLA    PTCLDY    44  35  70 SW7       30.16S                  
PENDLETON, OR  CLEAR     40  37  89 SE10      30.16F                  
$$